This demonstration page uses our WeatherBlox Daily Observations layout. Learn more.

40.92945, -100.16068

Hourly Observations for June 4, 2020

Temp ( °F °C ) Dew Point ( °F °C ) Humidity (%) Winds ( mph kmh ) Pressure ( in mb ) Visibility ( mi km ) Precip ( " mm )
12:15 am 00:15 Clear 62 16.9 61 16 94 94 Calm 29.8 1009 10 16.0934 0 0
12:35 am 00:35 Clear 62 16.6 61 16.1 97 97 Calm 29.8 1009 10 16.0934 0 0
12:55 am 00:55 Clear 61 16.1 60 15.8 98 98 Calm 29.8 1009 7 11.26538 0 0
1:15 am 01:15 Clear 59 15.2 59 14.8 97 97 Calm 29.8 1009 7 11.26538 0 0
1:35 am 01:35 Clear with Mist and Fog 59 15 58 14.7 98 98 NNE 6 9 29.81 1009 5 8.0467 0 0
1:55 am 01:55 Clear with Mist and Fog 60 15.5 59 15.2 98 98 NE 3 6 29.79 1009 5 8.0467 0 0
2:15 am 02:15 Clear with Mist and Fog 60 15.3 59 15 98 98 Calm 29.79 1009 5 8.0467 0 0
2:35 am 02:35 Clear with Mist and Fog 60 15.5 60 15.3 99 99 Calm 29.78 1009 4 6.43736 0 0
2:55 am 02:55 Clear with Mist and Fog 60 15.6 60 15.4 99 99 W 5 7 29.79 1009 5 8.0467 0 0
3:15 am 03:15 Clear with Mist and Fog 59 15 58 14.7 98 98 W 5 7 29.79 1009 5 8.0467 0 0
3:35 am 03:35 Clear with Mist and Fog 60 15.3 59 15 98 98 WSW 3 6 29.78 1009 4 6.43736 0 0
3:55 am 03:55 Clear with Mist and Fog 58 14.6 58 14.2 97 97 Calm 29.8 1009 5 8.0467 0 0
4:15 am 04:15 Clear 58 14.2 57 13.9 98 98 W 3 6 29.79 1009 7 11.26538 0 0
4:35 am 04:35 Clear 57 14 56 13.6 97 97 Calm 29.79 1009 7 11.26538 0 0
4:55 am 04:55 Clear 57 13.8 56 13.2 96 96 Calm 29.8 1009 10 16.0934 0 0
5:15 am 05:15 Clear 57 14 57 13.7 98 98 Calm 29.79 1009 7 11.26538 0 0
5:35 am 05:35 Clear with Mist and Fog 56 13.5 56 13.2 98 98 Calm 29.8 1009 5 8.0467 0 0
5:55 am 05:55 Clear with Mist and Fog 56 13.4 55 13 97 97 Calm 29.8 1009 4 6.43736 0 0
6:15 am 06:15 Sunny with Mist and Fog 57 13.8 56 13.2 96 96 SSW 5 7 29.8 1009 5 8.0467 0 0
6:35 am 06:35 Sunny with Mist and Fog 55 13 55 12.6 97 97 Calm 29.8 1009 5 8.0467 0 0
6:55 am 06:55 Sunny 56 13.4 56 13.1 98 98 Calm 29.81 1009 7 11.26538 0 0
7:15 am 07:15 Sunny 58 14.5 57 13.8 96 96 SE 3 6 29.81 1009 7 11.26538 0 0
7:35 am 07:35 Sunny 60 15.4 58 14.2 93 93 SSE 3 6 29.8 1009 10 16.0934 0 0
7:55 am 07:55 Sunny 62 16.6 60 15.5 93 93 Calm 29.79 1009 10 16.0934 0 0
8:15 am 08:15 Sunny 64 17.5 60 15.8 90 90 S 5 7 29.78 1009 10 16.0934 0 0
8:35 am 08:35 Sunny 64 17.7 61 16 90 90 S 6 9 29.78 1009 10 16.0934 0 0
8:55 am 08:55 Sunny 67 19.7 63 17 85 85 S 9 15 29.77 1008 10 16.0934 0 0
9:15 am 09:15 Sunny 71 21.6 62 16.8 74 74 SSW 5 7 29.75 1007 10 16.0934 0 0
9:35 am 09:35 Sunny 74 23.1 62 16.9 68 68 SSW 7 11 29.73 1007 10 16.0934 0 0
9:55 am 09:55 Sunny 75 24 62 16.5 63 63 SSW 8 13 29.72 1006 10 16.0934 0 0
10:15 am 10:15 Sunny 77 24.8 62 16.6 60 60 S 10 17 29.7 1006 10 16.0934 0 0
10:35 am 10:35 Sunny 78 25.5 62 16.8 59 59 SSW 12 19 29.7 1006 10 16.0934 0 0
10:55 am 10:55 Sunny 79 25.9 64 17.5 60 60 S 9 15 29.69 1006 10 16.0934 0 0
11:15 am 11:15 Sunny 80 26.5 62 16.4 54 54 S 10 17 29.68 1005 10 16.0934 0 0
11:35 am 11:35 Sunny 81 27.1 63 17.2 55 55 S 9 15 29.67 1005 10 16.0934 0 0
11:55 am 11:55 Sunny 82 27.5 63 17.2 53 53 SW 10 17 29.68 1005 10 16.0934 0 0
12:15 pm 12:15 Sunny 82 28 62 16.9 51 51 SW 9 15 29.68 1005 10 16.0934 0 0
12:35 pm 12:35 Sunny 84 28.7 62 16.9 49 49 SW 7 11 29.66 1004 10 16.0934 0 0
12:55 pm 12:55 Sunny 84 29.1 60 15.8 45 45 SSW 5 7 29.66 1004 10 16.0934 0 0
1:15 pm 13:15 Sunny 85 29.7 62 16.8 46 46 S 8 13 29.64 1004 10 16.0934 0 0
1:35 pm 13:35 Sunny 86 30.1 60 15.7 42 42 WSW 7 11 29.64 1004 10 16.0934 0 0
1:55 pm 13:55 Sunny 86 30.2 60 15.8 42 42 SW 8 13 29.63 1003 10 16.0934 0 0
2:15 pm 14:15 Sunny 87 30.6 60 15.8 41 41 W 8 13 29.62 1003 10 16.0934 0 0
2:35 pm 14:35 Sunny 88 31 61 15.9 40 40 SW 5 7 29.61 1003 10 16.0934 0 0
2:55 pm 14:55 Sunny 89 31.6 59 15.2 37 37 W 9 15 29.6 1002 10 16.0934 0 0
3:15 pm 15:15 Sunny 89 31.8 60 15.6 38 38 WSW 6 9 29.6 1002 10 16.0934 0 0
3:35 pm 15:35 Sunny 90 32.1 60 15.3 36 36 W 8 13 29.58 1002 10 16.0934 0 0
3:55 pm 15:55 Sunny 90 32.4 59 15.1 35 35 W 3 6 29.57 1001 10 16.0934 0 0
4:15 pm 16:15 Sunny 91 32.5 58 14.3 33 33 WSW 8 13 29.57 1001 10 16.0934 0 0
4:35 pm 16:35 Sunny 91 32.5 59 14.8 34 34 W 3 6 29.56 1001 10 16.0934 0 0
4:55 pm 16:55 Sunny 91 32.8 58 14.2 32 32 W 7 11 29.56 1001 10 16.0934 0 0
5:15 pm 17:15 Sunny 91 32.8 55 13 30 30 Calm 29.55 1001 10 16.0934 0 0
5:35 pm 17:35 Sunny 92 33.3 57 13.8 31 31 Calm 29.54 1000 10 16.0934 0 0
5:55 pm 17:55 Sunny 91 33 60 15.8 36 36 S 6 9 29.55 1001 10 16.0934 0 0
6:15 pm 18:15 Sunny 90 32.4 61 16.3 38 38 S 6 9 29.54 1000 10 16.0934 0 0
6:35 pm 18:35 Sunny 86 30.2 62 16.4 43 43 SSW 6 9 29.57 1001 10 16.0934 0 0
6:55 pm 18:55 Sunny 84 29 64 18 51 51 SSW 6 9 29.58 1002 10 16.0934 0 0
7:15 pm 19:15 Sunny 82 28 61 16 48 48 SSW 9 15 29.6 1002 10 16.0934 0 0
7:35 pm 19:35 Windy with Storms Likely 83 28.5 49 9.6 31 31 W 30 48 29.66 1004 4 6.43736 0 0
7:55 pm 19:55 Mostly Cloudy with Light Thunderstorms 75 23.7 57 14.1 55 55 ENE 14 22 29.65 1004 10 16.0934 0 0
8:15 pm 20:15 Partly Cloudy with Nearby Thunderstorms 82 27.5 50 10.1 34 34 SSE 10 17 29.58 1002 10 16.0934 0 0
8:35 pm 20:35 Sunny with Nearby Thunderstorms 77 24.8 56 13.2 49 49 ESE 6 9 29.6 1002 10 16.0934 0 0
8:55 pm 20:55 Sunny 79 26 56 13.3 45 45 N 7 11 29.61 1003 10 16.0934 0 0
9:15 pm 21:15 Clear 81 27.1 50 10.2 35 35 NNW 13 20 29.62 1003 10 16.0934 0 0
9:35 pm 21:35 Mostly Cloudy with Light Rain 76 24.5 54 12.2 46 46 N 9 15 29.61 1003 10 16.0934 0 0
9:55 pm 21:55 Partly Cloudy 71 21.6 57 13.8 61 61 NNW 8 13 29.66 1004 10 16.0934 0 0
10:15 pm 22:15 Clear 70 20.9 59 15.1 70 70 W 5 7 29.7 1006 10 16.0934 0 0
10:35 pm 22:35 Clear 67 19.7 61 16 79 79 E 3 6 29.74 1007 10 16.0934 0 0
10:55 pm 22:55 Clear 72 22 58 14.7 63 63 ESE 8 13 29.73 1007 10 16.0934 0 0
11:15 pm 23:15 Clear 71 21.5 60 15.6 69 69 Calm 29.72 1006 10 16.0934 0 0
11:35 pm 23:35 Clear 69 20.4 61 16.3 77 77 Calm 29.73 1007 10 16.0934 0 0
11:55 pm 23:55 Clear 66 19 62 16.5 86 86 SE 3 6 29.74 1007 10 16.0934 0 0

Powered by AerisWeather